DW2987 Weather Reports


time (UTC)temp
C
wind
direction
speed
KPH
gust
KPH
rain 1hr
cm
rain 24hr
cm
rain mn
cm
humidity
%
barometer
mb
20260508013020 -17 0.0 0.0 0.00 0.00 0.00 1010.3
20260508011516 -17 0.0 0.0 0.00 0.00 0.00 1010.3
20260508010024 -17 0.0 0.0 0.00 0.00 0.00 1010.4
20260508004507 -17 0.0 0.0 0.00 0.00 0.00 1010.4
20260508003002 -17 0.0 0.0 0.00 0.00 0.00 1010.4
20260508001602 -17 0.0 0.0 0.00 0.00 0.00 1010.4
20260508000055 -17 0.0 0.0 0.00 0.00 0.00 1010.4
20260507234651 -17 0.0 0.0 0.00 0.00 0.00 1010.5
20260507233046 -17 0.0 0.0 0.00 0.00 0.00 1010.5
20260507231541 -17 0.0 0.0 0.00 0.00 0.00 1010.6
20260507230054 -17 0.0 0.0 0.00 0.00 0.00 1010.8
20260507224536 -17 0.0 0.0 0.00 0.00 0.00 1010.6
20260507223101 -17 0.0 0.0 0.00 0.00 0.00 1010.5
20260507221523 -17 0.0 0.0 0.00 0.00 0.00 1010.5
20260507220019 -17 0.0 0.0 0.00 0.00 0.00 1010.5
20260507214515 -17 0.0 0.0 0.00 0.00 0.00 1010.3
20260507213011 -17 0.0 0.0 0.00 0.00 0.00 1010.2
20260507211506 -17 0.0 0.0 0.00 0.00 0.00 1010.2
20260507210001 -17 0.0 0.0 0.00 0.00 0.00 1010.3
20260507204557 -17 0.0 0.0 0.00 0.00 0.00 1010.3
20260507203054 -17 0.0 0.0 0.00 0.00 0.00 1010.2
20260507201604 17 151 0.0 4.8 0.00 0.00 0.00 68 1010.0
20260507200104 17 151 0.0 9.7 0.00 0.00 0.00 67 1009.9
20260507194549 17 151 0.0 11.3 0.00 0.00 0.00 66 1009.8
20260507193050 18 148 0.0 9.7 0.00 0.00 0.00 65 1009.4
20260507191545 18 149 3.2 12.9 0.00 0.00 0.00 64 1009.4
20260507190049 19 137 0.0 11.3 0.00 0.00 0.00 60 1009.1
20260507184543 19 137 0.0 4.8 0.00 0.00 0.00 54 1008.7
20260507183043 20 137 0.0 0.0 0.00 0.00 0.00 53 1008.7
20260507181542 20 137 0.0 0.0 0.00 0.00 0.00 52 1008.5
20260507180045 20 137 0.0 3.2 0.00 0.00 0.00 52 1008.4
20260507174552 20 137 0.0 1.6 0.00 0.00 0.00 52 1008.4
20260507173041 20 137 0.0 3.2 0.00 0.00 0.00 51 1008.4
20260507171544 20 137 0.0 3.2 0.00 0.00 0.00 52 1008.2
20260507170044 20 138 0.0 3.2 0.00 0.00 0.00 52 1008.2
20260507164539 20 138 0.0 6.4 0.00 0.00 0.00 51 1008.1
20260507163042 20 138 0.0 6.4 0.00 0.00 0.00 51 1008.1
20260507161547 20 140 0.0 4.8 0.00 0.00 0.00 51 1008.2
20260507160041 21 136 0.0 6.4 0.00 0.00 0.00 52 1008.1
20260507154542 21 136 0.0 6.4 0.00 0.00 0.00 51 1008.0
20260507153042 21 136 0.0 3.2 0.00 0.00 0.00 50 1008.0
20260507151537 22 136 0.0 4.8 0.00 0.00 0.00 50 1008.0
20260507150041 22 138 0.0 6.4 0.00 0.00 0.00 48 1008.1
20260507144535 23 138 1.6 6.4 0.00 0.00 0.00 48 1008.2
20260507143033 22 139 0.0 8.0 0.00 0.00 0.00 47 1008.3
20260507141531 22 139 0.0 8.0 0.00 0.00 0.00 49 1008.4
20260507140031 22 138 0.0 6.4 0.00 0.00 0.00 50 1008.5
20260507134525 21 138 0.0 11.3 0.00 0.00 0.00 53 1008.6
20260507133025 21 142 1.6 6.4 0.00 0.00 0.00 51 1008.8
20260507131526 20 142 0.0 11.3 0.00 0.00 0.00 54 1009.0
20260507130029 20 138 0.0 4.8 0.00 0.00 0.00 54 1009.0
20260507124521 20 138 0.0 8.0 0.00 0.00 0.00 53 1009.2
20260507123021 20 138 0.0 11.3 0.00 0.00 0.00 52 1009.3
20260507121519 21 140 0.0 8.0 0.00 0.00 0.00 54 1009.2
20260507120017 20 138 3.2 12.9 0.00 0.00 0.00 53 1009.3
20260507114519 20 110 0.0 11.3 0.00 0.03 0.00 53 1009.7
20260507113016 20 82 4.8 12.9 0.00 0.03 0.00 55 1009.8
20260507111517 19 69 0.0 9.7 0.00 0.03 0.00 58 1009.9
20260507110014 18 55 0.0 4.8 0.00 0.03 0.00 60 1010.1
20260507104515 18 55 1.6 8.0 0.00 0.03 0.00 57 1010.2
20260507103013 20 53 0.0 8.0 0.00 0.03 0.00 56 1010.2
20260507101510 18 51 0.0 8.0 0.00 0.03 0.00 57 1010.3
20260507100009 18 47 0.0 8.0 0.00 0.03 0.00 58 1010.2
20260507094509 19 51 0.0 9.7 0.00 0.05 0.00 56 1010.2
20260507093007 19 32 0.0 1.6 0.00 0.05 0.00 57 1010.2
20260507091507 -17 0.0 0.0 0.00 0.05 0.00 1010.3
20260507090100 -17 0.0 0.0 0.00 0.05 0.00 1010.4
20260507084559 -17 0.0 0.0 0.00 0.05 0.00 1010.3
20260507083107 -17 0.0 0.0 0.00 0.05 0.00 1010.1
20260507081556 -17 0.0 0.0 0.00 0.05 0.00 1010.2
20260507080042 -17 0.0 0.0 0.00 0.05 0.00 1010.2
20260507074538 -17 0.0 0.0 0.00 0.05 0.00 1010.2
20260507073046 -17 0.0 0.0 0.00 0.05 0.00 1010.2
20260507071531 -17 0.0 0.0 0.00 0.05 0.00 1010.2
20260507070035 -17 0.0 0.0 0.00 0.05 0.00 1010.1
20260507064533 -17 0.0 0.0 0.00 0.05 0.00 1010.0
20260507063022 -17 0.0 0.0 0.00 0.05 0.00 1009.8
20260507061512 -17 0.0 0.0 0.00 0.05 0.00 1009.8
20260507060016 -17 0.0 0.0 0.00 0.05 0.00 1009.7
20260507054503 -17 0.0 0.0 0.00 0.05 0.00 1009.7
20260507053059 -17 0.0 0.0 0.00 0.05 0.00 1009.5
20260507051554 -17 0.0 0.0 0.00 0.05 0.00 1009.0
20260507050049 -17 0.0 0.0 0.00 0.05 0.00 1009.0
20260507044546 -17 0.0 0.0 0.00 0.05 0.00 1008.9
20260507043043 -17 0.0 0.0 0.00 0.05 0.00 1008.6
20260507041543 -17 0.0 0.0 0.00 0.05 0.00 1008.6
20260507040033 -17 0.0 0.0 0.00 0.05 0.00 1008.4
20260507034528 -17 0.0 0.0 0.00 0.05 0.00 1008.4
20260507033027 -17 0.0 0.0 0.00 0.05 0.00 1008.2
20260507031525 -17 0.0 0.0 0.00 0.05 0.00 1008.1
20260507030015 -17 0.0 0.0 0.00 0.05 0.00 1008.2
20260507024512 -17 0.0 0.0 0.00 0.05 0.00 1008.3
20260507023005 -17 0.0 0.0 0.00 0.05 0.00 1008.3
20260507021501 -17 0.0 0.0 0.00 0.05 0.00 1008.2
20260507020109 -17 0.0 0.0 0.00 0.05 0.00 1008.3
20260507014604 -17 0.0 0.0 0.00 0.05 0.00 1008.1